Location: *
(43.0409°N, 0.1694°E)
Time: 12:18:07
(UTC+00:00)

USA 215 - Pass Details

Date: 03 October 2023
Orbit: 1098 x 1109 km, 123.0° (Epoch: 17 November)

Event Time Altitude Azimuth Distance (km) Brightness Sun altitude
Rises 03:33:50 0° 121° (ESE) 3,902 6.7 -26.7°
Reaches altitude 10° 03:36:18 10° 119° (ESE) 2,947 6.0 -26.3°
Maximum altitude 03:42:46 73° 37° (NE) 1,145 3.4 -25.2°
Enters shadow 03:48:03 17° 315° (NW) 2,499 4.9 -24.3°
